TimeCDT,TemperatureF,Dew PointF,Humidity,Sea Level PressureIn,VisibilityMPH,Wind Direction,Wind SpeedMPH,Gust SpeedMPH,PrecipitationIn,Events,Conditions,WindDirDegrees,DateUTC
12:54 AM,59.0,42.1,53,30.09,10.0,Calm,Calm,-,N/A,,Clear,0,2013-04-23 05:54:00
1:54 AM,57.9,43.0,58,30.07,10.0,SSE,3.5,-,N/A,,Mostly Cloudy,160,2013-04-23 06:54:00
2:54 AM,57.0,43.0,59,30.06,10.0,Calm,Calm,-,N/A,,Partly Cloudy,0,2013-04-23 07:54:00
3:54 AM,54.0,44.1,69,30.06,10.0,Calm,Calm,-,N/A,,Clear,0,2013-04-23 08:54:00
4:54 AM,53.6,42.8,67,30.06,10.0,ESE,3.5,-,N/A,,Partly Cloudy,110,2013-04-23 09:54:00
5:54 AM,54.0,43.0,66,30.04,10.0,SE,4.6,-,N/A,,Partly Cloudy,130,2013-04-23 10:54:00
6:54 AM,55.0,44.1,67,30.05,10.0,ESE,3.5,-,N/A,,Clear,110,2013-04-23 11:54:00
7:54 AM,59.0,46.9,64,30.06,10.0,South,9.2,-,N/A,,Scattered Clouds,180,2013-04-23 12:54:00
8:54 AM,61.0,48.9,64,30.05,10.0,South,9.2,-,N/A,,Clear,180,2013-04-23 13:54:00
9:54 AM,63.0,51.1,65,30.06,10.0,SSW,11.5,-,N/A,,Partly Cloudy,200,2013-04-23 14:54:00
10:54 AM,64.0,52.0,65,30.06,10.0,South,9.2,-,N/A,,Mostly Cloudy,190,2013-04-23 15:54:00
11:54 AM,64.0,53.1,67,30.06,9.0,South,12.7,20.7,0.00,Rain,Light Rain,190,2013-04-23 16:54:00
12:54 PM,64.9,55.9,73,30.01,10.0,South,8.1,-,0.01,,Mostly Cloudy,170,2013-04-23 17:54:00
1:20 PM,66.2,55.4,68,30.01,10.0,South,15.0,21.9,N/A,,Mostly Cloudy,180,2013-04-23 18:20:00
1:54 PM,64.9,55.0,70,29.97,10.0,South,13.8,21.9,0.00,Rain,Light Rain,170,2013-04-23 18:54:00
2:02 PM,64.4,55.4,73,29.97,10.0,SSE,11.5,20.7,0.00,Rain,Light Rain,160,2013-04-23 19:02:00
2:54 PM,63.0,55.9,78,29.95,10.0,SSE,6.9,-,0.02,Rain,Light Rain,160,2013-04-23 19:54:00
3:54 PM,70.0,54.0,57,29.91,10.0,South,10.4,26.5,N/A,,Clear,180,2013-04-23 20:54:00
4:54 PM,71.1,53.1,53,29.88,10.0,South,11.5,20.7,N/A,,Mostly Cloudy,190,2013-04-23 21:54:00
5:54 PM,71.1,53.1,53,29.86,10.0,South,10.4,23.0,N/A,,Mostly Cloudy,180,2013-04-23 22:54:00
6:54 PM,71.1,52.0,51,29.84,10.0,South,13.8,19.6,N/A,,Overcast,190,2013-04-23 23:54:00
7:54 PM,71.1,52.0,51,29.85,10.0,South,9.2,-,N/A,,Overcast,180,2013-04-24 00:54:00
8:54 PM,70.0,52.0,53,29.84,10.0,SSW,13.8,20.7,N/A,,Overcast,200,2013-04-24 01:54:00
9:54 PM,69.1,53.1,57,29.83,10.0,SSW,16.1,28.8,N/A,,Scattered Clouds,200,2013-04-24 02:54:00
10:54 PM,66.9,55.0,66,29.86,10.0,West,16.1,-,0.00,Rain,Light Rain,270,2013-04-24 03:54:00
11:01 PM,64.4,55.4,73,29.88,10.0,WNW,12.7,-,0.00,Rain,Light Rain,290,2013-04-24 04:01:00
11:26 PM,55.4,51.8,88,29.89,7.0,NW,13.8,-,0.01,Rain,Light Rain,310,2013-04-24 04:26:00
11:54 PM,54.0,50.0,86,29.89,10.0,WNW,5.8,-,0.01,,Overcast,300,2013-04-24 04:54:00